Location: ????????
(48.4751°N, 37.6926°E)
Time: 13:42:00
(UTC+00:00)

ATLAS 2AS CENTAUR R/B - Pass Details

Date: 20 January 2021
Orbit: 947 x 1265 km, 63.7° (Epoch: 13 February)

Event Time Altitude Azimuth Distance (km) Brightness Sun altitude
Rises 16:23:22 0° 267° (W) 4,221 7.4 -21.8°
Reaches altitude 10° 16:26:35 10° 277° (W) 3,250 6.3 -22.4°
Maximum altitude 16:33:31 32° 338° (NNW) 1,992 4.2 -23.5°
Enters shadow 16:38:03 19° 28° (NNE) 2,576 4.4 -24.3°
